Temperature
28 27 26 26 26 26 26 26 26 26 27 26 26 25 25 25 25 25 25 25 24 23 23 22 22 22 22 22 23 23 23 23 22 22 21 21 20 20 19 19 19 19 19 19
28 26 27 27 27 27 26 26 26 26 26 26 25 25 25 25 24 24 23 23 23 22 22 21 20 20 20 21 21 22 22 22 22 21 21 20 20 20 19 19 19 19 19 18
27 26 27 27 26 25 25 24 24 24 24 25 25 24 25 24 23 22 22 22 21 21 20 19 19 19 19 19 20 20 21 22 22 21 21 20 20 19 19 19 18 18 18 18
27 26 26 25 25 24 23 24 23 23 23 23 24 22 23 21 20 19 19 19 19 19 19 18 18 17 17 17 18 19 20 21 21 21 21 20 20 19 19 19 18 18 18 18
24 24 24 23 23 23 23 24 23 23 22 22 23 23 21 19 17 17 17 17 18 18 18 17 17 17 16 16 17 18 19 20 21 21 20 20 19 19 19 18 18 18 17 17
25 24 23 23 23 24 23 23 23 23 23 21 22 22 18 16 15 16 16 16 16 16 16 16 16 16 16 16 16 17 17 18 19 19 19 19 19 18 18 17 17 17 17 17
24 23 23 22 22 22 22 21 20 21 21 20 20 19 14 15 15 15 15 15 15 15 15 15 15 15 15 15 15 16 16 16 17 18 18 18 17 17 17 16 16 16 16 16
24 22 22 21 21 20 20 20 18 18 18 19 19 16 13 14 14 14 14 14 14 14 14 13 13 14 14 14 14 15 15 15 16 16 16 16 16 16 16 15 15 15 15 15
23 22 22 21 21 20 19 19 19 18 18 18 17 14 14 14 13 13 13 13 13 12 12 12 13 13 13 14 14 14 14 14 15 15 15 15 15 15 15 14 14 14 14 15
23 22 21 21 21 20 19 19 18 17 16 16 15 13 11 12 12 12 13 12 11 11 11 12 12 12 13 13 13 13 14 14 14 14 14 14 14 14 14 14 14 14 14 14
22 22 21 20 18 17 17 17 17 17 16 15 13 12 11 11 11 11 12 11 11 11 11 11 12 12 12 13 13 13 13 14 14 14 14 14 14 14 14 14 14 14 15 15
22 22 21 19 19 19 17 17 16 15 14 14 13 11 12 11 11 11 11 11 11 11 11 11 11 12 12 12 13 13 13 13 13 14 14 14 14 14 14 14 14 15 15 15
20 21 20 18 18 18 17 17 17 16 15 13 12 11 12 11 12 12 11 11 11 11 11 11 12 12 12 12 12 13 13 13 13 13 14 14 14 14 14 14 15 15 15 15
19 20 19 17 16 17 16 16 17 16 14 13 12 12 12 12 12 12 12 12 12 12 12 12 12 12 12 12 12 13 13 13 13 13 13 14 14 14 14 14 15 15 15 15
22 20 18 18 18 17 17 16 16 15 14 13 13 13 13 13 13 13 13 13 13 13 13 13 13 13 13 13 13 12 12 13 13 13 13 13 13 14 14 14 14 15 15 15
22 20 19 18 18 18 17 17 16 16 15 14 14 14 14 14 14 14 14 14 14 14 14 14 14 14 14 13 13 13 12 12 12 12 12 13 13 13 13 14 14 14 14 15
21 21 20 20 19 19 18 17 17 16 16 16 15 15 15 15 15 15 15 15 15 15 15 15 15 14 14 14 13 13 13 12 12 12 12 12 12 12 12 13 13 13 13 14
21 21 21 21 20 18 17 18 17 17 17 16 16 16 16 16 16 16 15 15 15 15 15 15 15 15 15 14 14 13 13 12 12 12 12 12 12 12 12 12 12 12 12 13
21 20 20 21 20 18 17 17 17 17 17 17 17 17 17 17 16 16 16 15 15 15 15 15 15 15 15 15 14 14 13 12 12 12 12 12 12 12 12 12 12 12 12 12
20 20 20 20 20 19 18 19 18 17 17 18 18 17 17 17 16 16 16 15 15 15 15 15 15 15 15 15 14 14 13 12 12 12 11 12 12 12 12 11 11 11 11 11
20 20 20 20 21 19 18 18 17 17 17 17 17 17 17 16 16 16 16 15 15 15 15 15 15 15 15 15 14 14 13 12 12 12 12 12 12 11 12 11 11 11 11 11
22 22 21 21 20 18 18 17 18 18 18 17 17 16 16 16 16 16 16 15 15 15 15 15 15 15 15 15 14 14 13 13 12 12 12 12 12 11 11 11 11 11 11 11
21 21 21 21 18 18 17 18 18 18 18 17 16 16 16 16 16 16 16 15 15 15 15 15 15 15 15 15 14 14 13 13 13 13 12 12 12 11 11 11 11 11 11 11
23 21 20 20 18 17 17 17 16 17 17 16 16 16 16 16 16 15 16 15 15 15 15 15 15 15 15 15 15 14 14 14 14 13 13 12 12 11 11 11 11 11 11 11
22 20 20 20 19 18 17 17 16 16 16 16 15 15 15 15 15 15 15 15 15 15 15 15 15 15 15 15 15 15 14 14 14 14 13 12 12 11 11 11 11 11 11 10
22 21 20 20 20 19 17 17 16 16 16 16 16 15 15 15 15 15 15 15 15 15 15 15 15 15 16 15 15 15 14 14 14 13 13 12 12 11 11 11 11 11 11 10
Wind_Speed
3 4 4 7 8 10 12 13 14 9 3 5 7 5 3 3 3 2 3 5 7 9 10 10 11 10 9 8 7 6 5 8 7 6 7 7 6 5 5 5 5 5 3 5
4 5 8 8 8 10 12 13 13 10 8 8 9 9 3 3 3 5 7 9 10 11 11 11 12 13 14 12 10 9 6 7 9 7 8 7 7 5 5 5 5 6 4 4
6 8 8 9 9 11 13 12 12 13 13 13 14 13 7 4 6 8 8 9 11 11 12 13 12 12 13 13 14 12 10 7 7 9 7 7 6 5 5 5 4 4 4 4
4 10 10 11 11 12 12 13 14 15 14 11 12 10 2 6 11 14 15 14 13 13 12 11 12 12 13 13 14 14 13 11 5 7 10 10 8 7 6 6 4 4 3 3
8 10 11 12 13 13 13 16 17 18 16 16 13 11 2 10 13 14 15 16 15 14 13 13 12 11 12 13 12 12 13 11 8 2 7 9 7 6 5 6 7 5 4 3
9 9 8 10 13 12 14 17 18 15 11 12 9 9 5 10 13 15 16 16 16 16 15 14 13 12 11 11 11 11 11 11 10 8 3 6 8 9 8 7 7 5 4 2
8 12 11 12 13 13 16 14 7 6 3 3 7 5 8 13 16 16 17 17 17 17 16 14 14 13 11 11 11 10 10 10 10 9 7 5 6 7 7 6 6 6 4 2
4 7 10 11 11 11 13 12 8 6 7 8 6 6 7 16 17 17 17 17 18 17 16 14 13 12 11 10 10 9 9 9 9 9 8 8 8 6 5 5 5 5 3 2
7 6 10 10 10 12 10 10 9 7 9 6 3 5 7 18 19 20 20 20 19 18 16 15 13 12 11 10 10 9 9 9 8 9 8 8 8 7 6 5 5 3 2 2
7 2 8 9 9 14 10 10 6 6 6 5 4 6 10 19 20 20 20 19 18 17 16 14 12 12 11 10 10 10 9 9 8 7 7 7 6 6 5 4 3 3 2 0
8 3 6 7 9 13 12 11 8 4 4 4 4 4 8 13 15 17 17 17 16 16 14 13 12 11 11 11 11 11 10 9 8 7 7 7 6 5 4 3 2 1 1 3
6 5 5 9 9 9 11 11 8 5 5 5 3 3 7 9 11 12 14 14 15 15 14 13 12 12 12 12 11 11 11 9 8 7 7 6 5 4 3 2 2 3 4 5
8 6 1 6 4 9 11 13 9 5 4 6 4 3 6 8 9 11 12 13 13 14 14 12 11 11 11 10 11 10 10 9 7 7 6 5 4 3 2 3 4 4 5 5
4 8 10 7 6 6 8 12 13 8 5 4 3 3 7 9 10 10 9 9 9 9 10 10 9 9 9 8 8 9 9 8 7 6 5 4 3 2 2 3 4 4 4 4
2 8 11 10 7 7 8 9 11 11 6 4 3 4 6 6 7 7 7 8 9 9 9 8 8 7 7 6 6 6 6 6 7 7 7 7 5 5 4 5 6 6 7 7
3 5 7 8 5 5 7 7 6 7 6 4 4 4 3 4 5 7 8 9 9 9 10 9 8 7 7 7 7 7 7 7 6 7 7 7 7 7 7 7 7 7 8 8
1 2 2 5 6 4 3 5 4 5 4 3 4 3 3 5 7 8 8 9 9 10 9 9 8 7 7 7 7 7 7 7 8 8 8 9 8 8 8 8 8 8 8 8
2 2 3 2 6 0 5 5 4 2 3 2 2 1 2 1 2 5 7 8 9 9 9 9 8 7 8 7 6 7 8 8 8 8 8 8 8 8 8 8 9 9 8 7
4 3 4 3 1 6 6 6 5 2 4 3 2 3 3 2 3 8 9 9 8 8 8 7 8 8 8 8 7 8 8 8 8 8 8 8 8 8 8 8 8 7 6 6
1 3 5 4 4 2 7 10 6 3 3 5 3 5 7 6 5 7 8 8 7 6 6 7 7 8 8 7 7 8 8 8 8 8 7 7 7 7 8 8 7 6 5 5
5 5 5 6 3 5 10 11 7 2 5 7 4 5 7 8 6 5 7 7 6 5 6 7 6 6 6 6 6 8 7 7 6 6 6 7 7 7 7 7 7 6 6 6
4 2 3 3 2 4 13 9 3 6 9 7 6 6 6 5 6 6 6 6 6 6 6 6 5 5 4 5 6 6 5 4 4 4 4 5 7 7 7 7 7 7 7 7
3 3 4 4 4 9 11 6 6 6 8 7 7 5 3 4 6 6 6 6 6 6 6 5 5 5 4 5 5 5 3 2 3 4 4 4 6 6 7 7 8 7 7 6
3 3 2 2 8 10 9 8 7 4 7 7 5 4 3 4 5 6 5 6 6 6 5 5 5 6 5 3 4 4 3 1 2 4 4 6 6 7 7 7 7 7 7 7
1 5 4 4 8 10 10 9 10 8 7 6 5 3 3 3 5 5 5 6 6 6 5 5 6 5 6 3 4 5 5 5 2 4 5 6 5 5 6 6 6 6 6 5
5 6 5 3 9 8 12 12 12 11 8 7 5 4 3 2 3 5 5 5 5 6 6 6 5 5 6 5 5 5 4 5 5 5 5 4 4 4 5 6 5 9 7 7
Wind_Direction
249 290 10 8 353 327 312 304 300 303 313 304 290 267 185 133 113 66 22 18 26 19 11 19 5 351 333 318 305 281 220 187 187 174 177 172 171 165 160 157 154 159 150 117
251 43 20 348 323 315 313 305 303 314 340 325 299 286 228 152 101 53 28 17 22 14 3 12 6 358 350 343 331 306 280 213 196 190 186 176 166 163 156 147 140 144 152 138
35 41 2 334 335 347 325 332 336 325 319 299 285 271 234 139 73 56 31 24 23 16 6 0 0 357 350 346 342 331 315 283 217 190 183 168 151 154 157 151 144 141 141 133
42 32 5 350 0 352 319 337 323 305 296 287 283 282 297 84 53 33 16 12 15 12 4 1 3 358 351 347 344 339 333 320 292 197 181 174 170 173 171 158 142 132 125 125
65 38 19 5 350 332 319 316 299 285 277 275 276 272 12 39 31 19 10 3 4 4 1 1 2 359 354 353 350 345 345 343 344 334 178 175 168 165 144 132 127 125 113 108
97 79 50 9 338 337 328 316 296 272 255 257 275 276 55 27 13 4 4 358 358 358 360 1 0 360 0 0 359 359 3 7 7 14 78 146 149 142 136 136 135 125 113 96
115 86 56 21 360 355 345 340 330 327 290 299 354 34 52 16 10 6 360 356 357 358 360 1 2 357 360 4 4 9 14 17 20 32 50 86 116 128 135 136 133 126 119 118
358 74 46 24 15 350 346 356 351 325 323 327 12 64 48 12 3 4 2 358 358 359 0 4 5 1 1 6 8 18 26 28 31 45 58 71 83 85 90 98 110 111 114 130
1 71 68 39 27 17 356 357 333 312 306 309 40 50 13 2 360 2 1 0 1 359 0 3 4 6 8 11 14 22 32 38 42 54 65 71 79 84 84 85 90 100 118 136
337 30 77 54 28 29 13 355 348 349 341 340 39 41 354 349 352 352 357 0 358 357 0 3 6 10 16 20 21 27 37 43 49 56 64 74 77 85 88 86 87 82 74 27
336 323 104 67 37 22 16 12 1 347 1 356 3 34 352 340 343 347 356 359 359 358 4 9 14 18 22 25 26 27 30 36 38 45 56 60 63 64 69 65 62 67 249 247
9 324 81 88 83 56 35 16 10 17 20 14 33 23 342 336 337 350 359 2 3 5 10 17 21 24 27 26 25 26 25 32 32 36 45 51 50 44 28 353 313 283 273 267
348 335 72 138 117 42 31 23 28 48 55 36 35 347 338 337 352 6 6 6 6 8 11 18 22 22 24 25 24 27 25 25 29 34 38 39 40 27 350 315 296 277 270 278
306 41 50 69 60 31 38 37 40 51 61 65 48 350 356 359 358 2 3 8 7 7 11 18 20 19 24 28 26 25 22 23 27 30 37 39 27 3 334 323 320 320 323 319
323 80 86 94 96 76 64 55 55 59 60 65 52 24 2 345 345 350 360 6 13 11 17 19 20 20 25 31 35 33 30 32 31 32 35 31 30 27 23 17 12 12 10 5
33 121 134 129 130 108 86 73 68 67 65 73 74 49 347 337 353 5 10 16 21 17 16 19 26 27 30 34 40 39 40 40 42 43 41 37 36 31 30 28 26 26 23 18
134 210 233 145 164 210 109 95 85 75 60 40 41 24 340 6 18 18 17 23 25 23 14 11 23 26 30 39 52 50 44 42 43 44 40 37 39 38 34 32 30 34 38 35
309 283 279 212 189 163 104 124 131 123 106 86 49 352 313 339 34 44 33 29 27 21 12 5 18 28 28 30 53 67 55 45 40 40 44 40 37 36 35 36 36 35 40 44
333 313 295 311 59 126 150 171 187 212 115 112 65 25 344 236 144 59 40 35 29 18 8 1 11 26 27 27 37 57 62 53 42 37 42 42 36 32 30 32 36 34 33 41
216 266 285 290 300 68 135 143 156 221 159 128 78 37 17 38 69 38 28 31 24 21 8 359 12 21 18 21 35 48 57 52 42 35 37 42 40 36 29 25 25 28 31 33
200 206 242 277 302 97 126 137 165 236 122 127 102 62 46 46 47 26 22 25 14 20 17 4 8 14 8 16 41 48 48 52 48 37 35 36 35 47 42 23 19 21 23 24
288 267 246 267 269 142 144 158 191 107 118 126 104 74 58 43 40 30 23 23 14 11 20 8 358 351 357 29 39 59 50 51 64 51 42 52 48 39 40 35 28 24 20 25
234 312 344 12 69 112 151 150 106 124 131 116 103 87 61 39 34 25 18 21 14 7 16 356 339 344 12 42 41 53 59 36 72 65 43 64 75 64 41 37 36 30 27 28
167 119 268 250 158 160 170 138 138 145 116 108 105 102 60 34 28 18 16 24 13 2 1 348 359 8 356 20 51 55 35 346 104 97 68 71 69 71 59 39 41 43 28 22
147 150 219 239 140 152 182 170 165 162 146 144 138 113 76 33 22 9 20 23 4 353 357 9 18 347 332 19 59 60 20 343 38 89 85 85 83 89 85 68 45 48 54 38
209 184 203 230 171 172 184 180 172 167 170 166 160 148 126 69 26 7 18 14 1 0 6 8 5 343 349 20 49 71 30 350 34 70 67 68 91 96 120 121 93 53 61 56
Height
1497 1498 1503 1502 1501 1502 1502 1502 1502 1497 1493 1496 1498 1499 1498 1500 1501 1503 1504 1505 1505 1506 1507 1506 1505 1505 1505 1504 1504 1504 1504 1504 1507 1508 1510 1513 1516 1519 1521 1524 1526 1529 1531 1533
1497 1504 1502 1502 1501 1501 1502 1504 1502 1497 1494 1497 1499 1498 1497 1499 1502 1504 1506 1507 1507 1508 1508 1507 1506 1504 1503 1501 1501 1501 1502 1501 1501 1503 1504 1506 1510 1514 1516 1519 1522 1525 1527 1530
1501 1507 1504 1504 1503 1508 1509 1509 1509 1508 1502 1499 1501 1502 1498 1499 1504 1508 1510 1510 1510 1510 1509 1508 1506 1504 1502 1500 1498 1497 1497 1497 1497 1497 1498 1500 1504 1508 1511 1513 1516 1520 1523 1525
1503 1506 1508 1508 1510 1514 1517 1509 1510 1509 1511 1510 1504 1513 1503 1504 1509 1513 1515 1514 1513 1512 1511 1509 1506 1504 1501 1499 1496 1494 1492 1492 1493 1493 1493 1495 1497 1501 1504 1508 1511 1515 1519 1521
1512 1513 1516 1519 1519 1517 1515 1510 1508 1506 1508 1510 1505 1510 1515 1514 1521 1522 1521 1519 1516 1514 1511 1509 1506 1504 1501 1498 1495 1492 1489 1488 1488 1489 1489 1491 1493 1496 1499 1503 1506 1509 1514 1517
1512 1516 1520 1524 1520 1516 1513 1509 1502 1497 1502 1515 1510 1511 1530 1533 1534 1529 1525 1523 1520 1516 1511 1508 1506 1503 1500 1497 1494 1491 1488 1486 1485 1486 1487 1488 1490 1493 1495 1498 1501 1505 1509 1513
1514 1519 1523 1525 1524 1521 1518 1520 1521 1517 1516 1520 1513 1522 1547 1541 1537 1534 1530 1526 1521 1517 1512 1508 1505 1502 1500 1497 1494 1491 1488 1486 1485 1485 1486 1487 1489 1491 1494 1496 1499 1502 1505 1509
1517 1526 1528 1529 1530 1532 1526 1526 1538 1542 1534 1526 1522 1538 1549 1545 1541 1537 1533 1529 1523 1518 1514 1509 1505 1503 1500 1497 1494 1492 1489 1487 1486 1486 1487 1488 1489 1491 1493 1496 1497 1499 1503 1507
1525 1531 1529 1532 1532 1534 1533 1533 1530 1533 1530 1533 1537 1546 1546 1546 1543 1538 1534 1529 1524 1520 1515 1510 1506 1504 1501 1498 1496 1494 1491 1490 1489 1488 1489 1489 1491 1492 1493 1495 1496 1499 1502 1506
1525 1530 1532 1534 1535 1537 1537 1536 1535 1540 1545 1546 1547 1558 1564 1553 1548 1543 1537 1533 1527 1522 1516 1511 1508 1505 1503 1500 1498 1496 1495 1493 1492 1492 1491 1492 1493 1494 1496 1497 1499 1501 1503 1506
1527 1527 1534 1537 1545 1548 1545 1543 1542 1542 1544 1555 1562 1571 1566 1561 1554 1548 1542 1537 1531 1525 1519 1514 1510 1507 1505 1503 1501 1499 1498 1497 1497 1496 1496 1496 1497 1498 1499 1500 1502 1503 1505 1507
1530 1530 1535 1544 1546 1546 1548 1548 1547 1553 1558 1557 1566 1576 1565 1561 1556 1550 1545 1539 1534 1528 1522 1517 1514 1510 1507 1506 1504 1503 1502 1501 1500 1500 1500 1500 1501 1502 1502 1503 1504 1506 1507 1508
1537 1534 1541 1551 1551 1551 1551 1550 1548 1550 1557 1566 1571 1577 1564 1561 1556 1552 1547 1542 1537 1531 1526 1521 1518 1514 1512 1510 1508 1506 1505 1504 1504 1504 1504 1504 1504 1505 1505 1505 1506 1507 1508 1508
1542 1540 1547 1558 1564 1558 1558 1556 1553 1554 1564 1571 1573 1571 1564 1560 1557 1553 1549 1545 1540 1536 1531 1527 1523 1520 1517 1515 1513 1511 1509 1508 1507 1507 1506 1506 1506 1506 1506 1506 1507 1507 1508 1508
1538 1546 1551 1555 1556 1557 1559 1560 1559 1561 1564 1569 1570 1568 1565 1561 1558 1554 1550 1547 1543 1539 1535 1532 1529 1525 1523 1520 1518 1516 1514 1512 1510 1509 1509 1508 1508 1508 1508 1508 1508 1508 1508 1508
1539 1546 1549 1554 1554 1554 1559 1560 1561 1562 1563 1565 1565 1566 1562 1560 1558 1555 1552 1549 1546 1543 1540 1537 1534 1531 1528 1526 1524 1521 1519 1517 1515 1513 1512 1511 1510 1510 1509 1509 1508 1508 1508 1508
1540 1542 1545 1549 1550 1553 1558 1560 1561 1562 1562 1562 1564 1565 1561 1559 1558 1556 1554 1552 1549 1547 1544 1540 1538 1535 1533 1530 1528 1526 1524 1522 1520 1518 1516 1515 1513 1512 1511 1510 1510 1509 1508 1508
1541 1541 1542 1542 1549 1559 1562 1557 1559 1560 1560 1561 1561 1560 1560 1559 1559 1557 1556 1554 1552 1550 1547 1544 1541 1539 1537 1535 1532 1530 1528 1526 1524 1522 1520 1518 1517 1515 1514 1513 1512 1511 1510 1510
1543 1544 1543 1541 1546 1555 1558 1556 1557 1558 1559 1559 1559 1559 1558 1557 1558 1558 1557 1556 1554 1552 1550 1547 1545 1543 1541 1538 1536 1534 1532 1530 1528 1526 1524 1522 1521 1519 1518 1516 1515 1514 1513 1512
1545 1545 1547 1543 1545 1551 1552 1552 1556 1559 1559 1559 1559 1559 1558 1557 1559 1561 1559 1557 1555 1554 1552 1549 1548 1545 1543 1541 1539 1537 1535 1533 1531 1530 1528 1526 1524 1522 1521 1519 1518 1517 1516 1515
1544 1544 1547 1544 1543 1547 1549 1553 1557 1562 1559 1559 1560 1560 1561 1560 1562 1562 1560 1558 1556 1555 1553 1551 1549 1547 1545 1543 1541 1539 1538 1536 1535 1533 1531 1529 1527 1526 1524 1522 1520 1519 1518 1517
1538 1539 1540 1541 1543 1552 1549 1553 1554 1555 1556 1558 1560 1561 1562 1562 1562 1561 1560 1559 1557 1556 1554 1552 1550 1548 1547 1545 1543 1541 1540 1539 1537 1535 1534 1532 1530 1528 1526 1524 1522 1521 1520 1520
1538 1537 1538 1539 1547 1545 1548 1550 1552 1554 1556 1558 1560 1562 1563 1563 1562 1562 1560 1559 1558 1556 1554 1553 1551 1549 1548 1546 1544 1543 1542 1540 1539 1537 1536 1534 1532 1530 1528 1527 1525 1523 1522 1521
1531 1535 1539 1539 1542 1545 1548 1550 1553 1555 1557 1559 1561 1562 1563 1563 1563 1562 1561 1560 1558 1557 1555 1553 1552 1550 1549 1547 1545 1544 1543 1541 1540 1539 1538 1537 1535 1533 1531 1530 1528 1526 1525 1523
1531 1536 1538 1538 1539 1544 1547 1549 1552 1555 1557 1559 1561 1562 1562 1563 1563 1562 1561 1560 1558 1557 1555 1554 1552 1550 1549 1548 1546 1545 1544 1543 1542 1541 1540 1538 1537 1536 1534 1533 1531 1530 1528 1527
1528 1532 1536 1536 1534 1539 1543 1546 1550 1553 1556 1558 1560 1561 1562 1562 1562 1562 1561 1560 1559 1557 1556 1554 1553 1551 1550 1549 1548 1546 1544 1544 1543 1542 1541 1540 1539 1538 1537 1536 1535 1534 1532 1531